Location: Montreal
(45.5000°N, 73.5833°W)
Time: 21:11:10
(UTC-05:00)

Vanguard 1 - Pass Details

Date: 27 October 2017
Orbit: 650 x 3834 km, 34.2° (Epoch: 17 November)

Event Time Altitude Azimuth Distance (km) Brightness Sun altitude
Rises 05:54:47 0° 278° (W) 6,550 - -16.7°
Reaches altitude 10° 05:59:27 10° 268° (W) 5,929 - -15.9°
Exits shadow 06:02:33 16° 261° (W) 5,606 13.3 -15.4°
Maximum altitude 06:15:10 31° 216° (SW) 5,210 13.4 -13.2°
Drops below altitude 10° 06:33:28 10° 165° (SSE) 6,806 14.6 -10.0°
Sets 06:39:31 0° 156° (SSE) 7,606 15.1 -9.0°
